Weather in Yuzhny

Ukraine / Odesa District     46°37′19″N   31°05′59″E
temp.,
°C
wind,
m/s
gust,
m/s
humid.,
%
clouds,
%
prec.,
mm/h
press.,
hPa
HPBL,
m
18 april, sun
sun1800:00+9ssw2270100 0.0 101912
03:00+9nne1171100 0.0 101910
06:00+8e2268100 0.0 101910
09:00+9ne3365100 0.0 101958
12:00+9ese3362100 0.0 1018116
15:00+10sse22619 0.0 101862
18:00+10sw226192 0.0 101740
21:00+10wsw236984 0.0 101722
19 april, mon
mon1900:00+10w226498 0.0 101712
03:00+10nw3465100 0.0 101723
06:00+10n3471100 0.0 101631
09:00+10nne4475100 0.0 101640
12:00+10ese3476100 0.0 1015114
15:00+10se3374100 0.0 101469
18:00+11ne2269100 0.0 101262
21:00+12e3372100 0.0 101136
20 april, tue
tue2000:00+10e3586100 0.2 100978
03:00+9ne71395100 4.1 1006343
06:00+9nne121993100 6.7 1001595
09:00+9nne162291100 23.3 998835
12:00+9n162090100 5.8 9961023
15:00+9nnw172187100 8.7 9981280
18:00+9nw131983100 2.6 10031195
21:00+10nw91475100 2.8 1007497
21 april, wed
wed2100:00+9w71077100 0.0 1010247
03:00+9w61078100 0.0 1012274
06:00+8w5878100 0.0 1013256
09:00+9w347580 0.0 1015156
12:00+10s447146 0.0 1017155
15:00+10s677997 0.0 1017133
18:00+10s6779100 0.0 1017135
21:00+10s5686100 0.0 101987
22 april, thu
thu2200:00+10s6988100 0.0 1019197
03:00+10s688935 0.1 1019164
06:00+10s449098 0.1 102066
09:00+10s458799 0.1 102181
12:00+10sse45865 0.0 1022103
15:00+10s45882 0.0 1022125
18:00+10sse44840 0.0 102279
21:00+10sse44843 0.0 102342